Regional Weather Roundup
Issued by NWS

Home | Current Version | Previous Version | Text Only | Print | Product List | Glossary Off
Versions: 1 2 3 4 5 6 7 8 9 10 11 12 13 14 15 16 17 18 19 20 21 22 23 24 25 26 27 28 29 30 31 32 33 34 35 36 37 38 39 40 41 42 43 44 45 46 47 48 49 50

000
ASUS43 KLMK 211810
RWRKY
KENTUCKY REGIONAL WEATHER ROUNDUP
NATIONAL WEATHER SERVICE LOUISVILLE KY
200 PM EDT MON AUG 21 2017

NOTE "FAIR" INDICATES FEW OR NO CLOUDS BELOW 12,000 FEET
WITH NO SIGNIFICANT WEATHER AND/OR OBSTRUCTIONS TO VISIBILITY.

KYZ001>023-026-027-061>063-070>075-211900-
WESTERN AND SOUTH CENTRAL KENTUCKY

CITY           SKY/WX    TMP DP  RH WIND       PRES   REMARKS
PADUCAH        PTSUNNY   92  74  55 W5        30.11F HX 101
HENDERSON      SUNNY     89  74  60 S5        30.12F HX  98
OWENSBORO      SUNNY     90  68  48 SW6       30.13F HX  94
HOPKINSVILLE   MOSUNNY   89  69  51 SW3       30.13F HX  94
BOWLING GREEN  SUNNY     91  65  41 SW7       30.14F HX  93
GLASGOW        SUNNY     89  66  46 W3        30.16F HX  91
$$

KYZ024-025-028>034-038-045-046-053-211900-
NORTH CENTRAL KENTUCKY

CITY           SKY/WX    TMP DP  RH WIND       PRES   REMARKS
LOUISVILLE/SDF PTSUNNY   90  68  48 SW7       30.13F HX  94
LOUISVILLE/LOU MOSUNNY   89  69  51 SW9       30.14F HX  93
FORT KNOX      SUNNY     90  66  45 S9        30.13F HX  92
$$

KYZ035>037-039>044-047>052-055>060-089>105-211900-
NORTHEAST KENTUCKY

CITY           SKY/WX    TMP DP  RH WIND       PRES   REMARKS
LEXINGTON      MOSUNNY   88  65  46 S6        30.18F HX  90
COVINGTON      MOSUNNY   88  70  55 S9        30.15F HX  93
FRANKFORT      MOSUNNY   89  65  44 SW9       30.15F HX  91
$$

KYZ054-064>069-076>088-106>120-211900-
SOUTHEAST KENTUCKY

CITY           SKY/WX    TMP DP  RH WIND       PRES   REMARKS
JACKSON        MOSUNNY   86  69  56 CALM      30.22F HX  90
LONDON         SUNNY     87  66  49 CALM      30.20F
SOMERSET       MOSUNNY   86  66  51 W5        30.20F
MIDDLESBORO    SUNNY     88  69  53 S7        30.21F HX  91
MONTICELLO     PTCLDY    88  69  53 W12       30.20F HX  92
$$




USA.gov is the U.S. government's official web portal to all federal, state and local government web resources and services.